Regional Weather Roundup
Issued by NWS Green Bay, WI

Home | Current Version | Previous Version | Graphics & Text | Print | Product List | Glossary Off
Versions: 1 2 3 4 5 6 7 8 9 10 11 12 13 14 15 16 17 18 19 20 21 22 23 24 25 26 27 28 29 30 31 32 33 34 35 36 37 38 39 40 41 42 43 44 45 46 47 48 49 50

000
ASUS43 KGRB 250459
RWRGRB

NORTH-CENTRAL AND NORTHEAST WISCONSIN REGIONAL WEATHER ROUNDUP
NATIONAL WEATHER SERVICE GREEN BAY WI
1100 PM CST WED DEC 24 2014

WIZ005-009-010>012-018-019-250600-
NORTH CENTRAL WISCONSIN

CITY           SKY/WX    TMP DP  RH WIND       PRES   REMARKS
IRONWOOD       CLOUDY    30  30 100 W12       29.47S
MANITOWISH WTR NOT AVBL
ARBOR VITAE    NOT AVBL
EAGLE RIVER    NOT AVBL
LAND O LAKES   NOT AVBL
RHINELANDER    CLOUDY    29  27  92 W13       29.49R
PHILLIPS       NOT AVBL
ANTIGO         NOT AVBL
TOMAHAWK       NOT AVBL
MERRILL        NOT AVBL
$$

WIZ013-073-250600-
NORTHEAST WISCONSIN

CITY           SKY/WX    TMP DP  RH WIND       PRES   REMARKS
IRON MOUNTAIN  CLOUDY    32  27  81 NW10      29.43R
MARINETTE      CLOUDY    34  28  80 W7        29.46R
$$

WIZ017-030-035>037-045-250600-
CENTRAL WISCONSIN

CITY           SKY/WX    TMP DP  RH WIND       PRES   REMARKS
MEDFORD        NOT AVBL
WAUSAU         CLOUDY    31  28  89 W10       29.52R
MOSINEE        NOT AVBL
MARSHFIELD     CLOUDY    33  28  81 W9        29.55R
WISC RAPIDS    CLOUDY    33  29  85 W7        29.58R
STEVENS POINT  NOT AVBL
WAUPACA        NOT AVBL
SHAWANO        NOT AVBL
CLINTONVILLE   NOT AVBL
$$

WIZ038-039-048-051-250600-
FOX VALLEY

CITY           SKY/WX    TMP DP  RH WIND       PRES   REMARKS
NWS GREEN BAY  CLOUDY    34  31  88 W10       29.51R
APPLETON       MOCLDY    34  32  93 MISG      29.52R
OSHKOSH        CLOUDY    34  30  85 W8        29.54R
FOND DU LAC    CLOUDY    34  30  85 W9        29.55R
$$

WIZ022-050-052-250600-
EAST CENTRAL WISCONSIN

CITY           SKY/WX    TMP DP  RH WIND       PRES   REMARKS
STURGEON BAY   CLOUDY    32  28  86 W8        29.48S
MANITOWOC      NOT AVBL
SHEBOYGAN      CLOUDY    34  31  88 W9        29.52R
$$

LMZ563-521-522-541>543-250600-
LAKESHORE

STATION/POSITION TIME  TEMP    WIND        PRES    VSBY  WAVE
                       AIR SEA DIR/SP/G                  HT/PER
                 (UTC) (F)     (DEG/KT/KT) (MB)    (MI)  (FT/S)
SHEBOYGAN LKSHOR 0400   35 36  280/ 10/ 12 1000.0R
KEWAUNEE LKSHORE 0400   34     300/  5/ 11  997.7R
ALGOMA MARINA    0400          320/ 11/ 16   N/A
NORTHPORT PIER   0400   33     300/  9/ 12  997.0S
SISTER BAY LKSHO 0400          310/ 13/ 15   N/A
CHAMBERS ISLAND  0400   33     250/  4/  8  998.0S
MENOMINEE LKSHOR 0400   33     250/  6/  8  998.6R
$$


USA.gov is the U.S. government's official web portal to all federal, state and local government web resources and services.